Location: Peach Mountain Observatory
(42.3967°N, 83.9367°W)
Time: 09:51:42
(UTC-05:00)

Transit 2A Rocket - All Passes

Search period start: 23 January 2020 00:00
Search period end: 02 February 2020 00:00
Orbit: 593 x 910 km, 66.7° (Epoch: 22 January)

Date Brightness Start Highest point End Pass type
(mag) Time Alt. Az. Time Alt. Az. Time Alt. Az.
23 Jan - 05:31:58 10° S 05:35:48 31° ESE 05:39:38 10° NE visible
23 Jan - 07:14:39 10° WSW 07:18:19 27° NW 07:22:02 10° N visible
23 Jan - 14:13:18 10° NNW 14:17:42 34° NE 14:22:27 10° ESE daylight
23 Jan - 15:55:48 10° NW 16:00:14 34° WSW 16:05:01 10° S daylight
24 Jan - 04:50:43 10° SSE 04:53:30 17° ESE 04:56:17 10° ENE visible
24 Jan - 06:31:28 10° SW 06:35:37 46° NW 06:39:49 10° NNE visible
24 Jan - 13:31:13 10° N 13:34:57 22° NE 13:38:54 10° E daylight
24 Jan - 15:12:58 10° NW 15:17:48 59° WSW 15:23:04 10° SSE daylight
25 Jan - 05:48:44 10° SSW 05:53:03 87° WNW 05:57:24 10° NNE visible
25 Jan - 07:34:29 10° WNW 07:36:18 12° NW 07:38:07 10° NNW daylight
25 Jan - 12:49:28 10° N 12:52:03 14° NE 12:54:45 10° ENE daylight
25 Jan - 14:30:23 10° NNW 14:35:17 81° ENE 14:40:39 10° SSE daylight
25 Jan - 16:14:55 10° WNW 16:17:20 13° WSW 16:19:49 10° SW daylight
26 Jan - 05:06:26 10° S 05:10:35 48° ESE 05:14:45 10° NE visible
26 Jan - 06:50:14 10° W 06:53:23 19° NW 06:56:35 10° N visible
26 Jan - 13:47:59 10° NNW 13:52:42 47° NE 13:57:49 10° SE daylight
26 Jan - 15:31:04 10° WNW 15:35:01 24° WSW 15:39:16 10° SSW daylight
27 Jan - 04:24:40 10° SSE 04:28:13 25° ESE 04:31:47 10° NE visible
27 Jan - 06:06:44 10° WSW 06:10:36 32° NW 06:14:32 10° NNE visible
27 Jan - 13:05:45 10° N 13:10:00 29° NE 13:14:34 10° ESE daylight
27 Jan - 14:47:59 10° NW 14:52:38 41° WSW 14:57:42 10° S daylight
28 Jan - 03:43:50 10° SE 03:45:57 13° ESE 03:48:04 10° ENE visible
28 Jan - 05:23:42 10° SW 05:27:56 57° WNW 05:32:14 10° NNE visible
28 Jan - 12:23:45 10° N 12:27:12 19° NE 12:30:50 10° E daylight
28 Jan - 14:05:15 10° NW 14:10:11 72° WSW 14:15:34 10° SSE daylight
29 Jan - 04:41:06 10° SSW 04:45:24 75° ESE 04:49:45 10° NNE visible
29 Jan - 06:26:05 10° WNW 06:28:30 14° NW 06:30:56 10° N visible
29 Jan - 11:42:13 10° NNE 11:44:16 12° NE 11:46:23 10° ENE daylight
29 Jan - 13:22:44 10° NNW 13:27:39 68° ENE 13:33:00 10° SE daylight
29 Jan - 15:06:36 10° WNW 15:09:47 17° WSW 15:13:07 10° SW daylight
30 Jan - 03:58:59 10° S 04:02:58 38° ESE 04:06:59 10° NE visible
30 Jan - 05:42:10 10° W 05:45:37 23° NW 05:49:08 10° N visible
30 Jan - 12:40:24 10° NNW 12:45:01 40° NE 12:50:02 10° ESE daylight
30 Jan - 14:23:09 10° NW 14:27:28 29° WSW 14:32:05 10° S daylight
31 Jan - 03:17:27 10° SSE 03:20:39 20° ESE 03:23:51 10° ENE night (unlit)
31 Jan - 04:58:51 10° WSW 05:02:53 39° NW 05:06:59 10° NNE visible
31 Jan - 11:58:14 10° N 12:02:17 25° NE 12:06:38 10° ESE daylight
31 Jan - 13:40:13 10° NW 13:45:03 50° WSW 13:50:18 10° S daylight
01 Feb - 02:37:34 10° ESE 02:38:25 10° ESE 02:39:16 10° E night (unlit)
01 Feb - 04:15:58 10° SW 04:20:16 72° WNW 04:24:38 10° NNE visible
01 Feb - 06:02:36 10° NW 06:03:40 11° NW 06:04:46 10° NNW visible
01 Feb - 11:16:19 10° N 11:19:26 17° NE 11:22:43 10° E daylight
01 Feb - 12:57:34 10° NNW 13:02:33 86° WSW 13:08:01 10° SSE daylight
01 Feb - 14:42:58 10° W 14:44:31 11° WSW 14:46:06 10° WSW daylight
